P/2009 O3 ( Hill )

Japanese version
Home page
Updated on June 26, 2020

---------------------------------------------------------------------

* Profile

Discovery Date July 29, 2009
Magnitude 17.5 mag
Discoverer R. E. Hill (Catalina Sky Survey)

* Pictures

* Orbital Elements

Epoch 2009 May 9.0 TT = JDT 2454960.5                                           
T 2009 May 18.63524 TT                                  Rudenko                 
q   2.4499810            (2000.0)            P               Q                  
n   0.04495451     Peri.  154.55856     +0.92816681     +0.37171230             
a   7.8334644      Node   183.76571     -0.37094698     +0.92002391             
e   0.6872417      Incl.   16.21480     -0.03007836     +0.12404018             
P  21.9                                                                         
From 296 observations 2009 July 24-2010 Jan. 3, mean residual 0".5.             

* Magnitudes Graph

        m1 = 12.0 + 5 log d + 10.0 log r

---------------------------------------------------------------------

The orbital elements are published on M.P.E.C. 2020-M07.
The magnitudes graphs are made with Comet for Windows.

---------------------------------------------------------------------

Copyright(C) Seiichi Yoshida (comet@aerith.net). All rights reserved.